Regional Weather Roundup
Issued by NWS Albany, NY

Home | Current Version | Previous Version | Text Only | Print | Product List | Glossary On
Versions: 1 2 3 4 5 6 7 8 9 10 11 12 13 14 15 16 17 18 19 20 21 22 23 24 25 26 27 28 29 30 31 32 33 34 35 36 37 38 39 40 41 42 43 44 45 46 47 48 49 50
000
ASUS41 KALY 051610
RWRALY

NEW YORK STATE HOURLY WEATHER ROUNDUP
NATIONAL WEATHER SERVICE ALBANY NY
1100 AM EST THU MAR 05 2015

NOTE: "FAIR" INDICATES FEW OR NO CLOUDS BELOW 12,000 FEET WITH NO
SIGNIFICANT WEATHER AND/OR NO OBSTRUCTIONS TO VISIBILITY.

NYZ032-033-038>043-046>054-057>066-NYZ062>081-051700-
EAST


CITY           SKY/WX    TMP DP  RH WIND       PRES   REMARKS
ALBANY         CLOUDY    21   5  50 NW14      30.17F WCI   8
GLENS FALLS    CLOUDY    21   2  43 N14G21    30.17R WCI   8
POUGHKEEPSIE   CLOUDY    26   6  42 N8        30.12F WCI  18
NEWBURGH       CLOUDY    27  14  59 NW12      30.11F WCI  16
MONTGOMERY     CLOUDY    24   5  44 N8        30.11F WCI  15
WHITE PLAINS   SNOW      24  20  84 N9        30.09F VSB 1/4 WCI  14
ISLIP          LGT SNOW  25  21  85 N16G22    30.09F VSB 1   WCI  12
NEW YORK CITY  SNOW      26  23  88 N9        30.12F VSB 1/4 WCI  17
CENTRAL PARK   SNOW      26  24  92 VRB3      30.14F VSB 1/4
$$

NYZ005>009-017-018-044>046-055-056-051700-
CENTRAL


CITY           SKY/WX    TMP DP  RH WIND       PRES   REMARKS
FULTON         CLOUDY    13   3  64 NW8       30.26F WCI   2
SYRACUSE       CLOUDY    10   3  73 NW10      30.24F WCI  -4
ROME           CLOUDY    14   3  61 NW10      30.22F WCI   1
ELMIRA         CLOUDY    16   1  51 N6        30.20F WCI   7
BINGHAMTON     CLOUDY    12   1  61 N14       30.08F WCI  -3
MONTICELLO     CLOUDY    18  -2  41 NW9       30.05F WCI   6
$$

NYZ026>034-041>043-051700-
NORTH


CITY           SKY/WX    TMP DP  RH WIND       PRES   REMARKS
WATERTOWN      PTSUNNY   13  -3  49 NE12      30.27F WCI  -1
FORT DRUM      NOT AVBL
MASSENA        PTSUNNY    9  -5  53 W7        30.32R WCI  -2
SARANAC LAKE   CLOUDY     7  -5  57 NW7       30.09F WCI  -5
PLATTSBURGH    CLOUDY    12  -2  53 N12       30.24S WCI  -2
$$

NYZ001>004-010>016-019>021-051700-
WEST


CITY           SKY/WX    TMP DP  RH WIND       PRES   REMARKS
NIAGARA FALLS  LGT SNOW   9   2  73 NW12      30.33R WCI  -6
BUFFALO        LGT SNOW  10   1  67 NW8       30.30R WCI  -2
DUNKIRK        PTSUNNY    8  -3  61 NW9       30.34R WCI  -5
JAMESTOWN      CLOUDY     7  -6  56 NW8       30.20R WCI  -6
WELLSVILLE     CLOUDY     9  -5  53 N7        30.13R WCI  -2
ROCHESTER      CLOUDY    13   3  64 W12       30.29F WCI  -1
PENN YAN       CLOUDY    12   1  61 NW16      30.23R WCI  -5
$$

             KEY
       WCI = WIND CHILL INDEX
       VSB = VISIBILITY
       HX  = HEAT INDEX
$$


USA.gov is the U.S. government's official web portal to all federal, state and local government web resources and services.